AL7BX-WX Weather Reports


time (UTC)temp
F
wind
direction
speed
knots
gust
knots
rain 1hr
in
rain 24hr
in
rain mn
in
humidity
%
barometer
mb
20260904045613 71 154 6.1 13.0 0.00 0.00 0.00 18
20260904044503 71 146 4.3 12.2 0.00 0.00 0.00 17
20260904043814 71 148 6.1 13.0 0.00 0.00 0.00 17
20260904042913 71 138 5.2 12.2 0.00 0.00 0.00 16
20260904042013 71 139 4.3 12.2 0.00 0.00 0.00 17
20260904040903 71 141 5.2 10.4 0.00 0.00 0.00 16
20260904040003 71 145 4.3 9.6 0.00 0.00 0.00 16
20260904035403 71 140 4.3 12.2 0.00 0.00 0.00 17
20260904034503 71 138 3.5 9.6 0.00 0.00 0.00 17
20260904033603 71 133 2.6 8.7 0.00 0.00 0.00 18
20260904032913 71 133 2.6 5.2 0.00 0.00 0.00 18
20260904032014 71 126 1.7 5.2 0.00 0.00 0.00 19
20260904030903 71 140 1.7 5.2 0.00 0.00 0.00 18
20260904030003 72 137 1.7 4.3 0.00 0.00 0.00 18
20260904025403 72 116 2.6 5.2 0.00 0.00 0.00 18
20260904024503 72 122 2.6 8.7 0.00 0.00 0.00 17
20260904023813 70 134 2.6 8.7 0.00 0.00 0.00 17
20260904022703 70 177 0.9 4.3 0.00 0.00 0.00 18
20260904021803 71 169 0.0 1.7 0.00 0.00 0.00 18
20260904020903 72 176 1.7 6.1 0.00 0.00 0.00 17
20260904020003 73 187 3.5 9.6 0.00 0.00 0.00 16
20260904015403 73 184 3.5 11.3 0.00 0.00 0.00 16
20260904014504 74 197 4.3 10.4 0.00 0.00 0.00 16
20260904013603 75 197 5.2 13.9 0.00 0.00 0.00 16
20260904012703 76 193 7.0 15.6 0.00 0.00 0.00 16
20260904011803 76 188 5.2 15.6 0.00 0.00 0.00 16
20260904010903 77 181 7.0 17.4 0.00 0.00 0.00 16
20260904010214 78 190 5.2 13.0 0.00 0.00 0.00 16
20260904005403 78 183 6.1 14.8 0.00 0.00 0.00 16
20260904004503 79 180 7.0 15.6 0.00 0.00 0.00 17
20260904003603 79 158 6.1 18.2 0.00 0.00 0.00 16
20260904002703 79 166 6.1 11.3 0.00 0.00 0.00 16
20260904001803 80 168 7.0 16.5 0.00 0.00 0.00 16
20260904001112 80 167 7.8 18.2 0.00 0.00 0.00 17
20260904000003 80 177 8.7 17.4 0.00 0.00 0.00 16
20260903235403 80 185 9.6 18.2 0.00 0.00 0.00 16
20260903234503 80 196 8.7 20.0 0.00 0.00 0.00 17
20260903233814 80 194 7.8 16.5 0.00 0.00 0.00 16
20260903232703 80 183 9.6 21.7 0.00 0.00 0.00 16
20260903231803 80 197 8.7 17.4 0.00 0.00 0.00 17
20260903230903 80 202 9.6 20.0 0.00 0.00 0.00 17
20260903230003 81 190 8.7 20.9 0.00 0.00 0.00 17
20260903225403 81 186 8.7 19.1 0.00 0.00 0.00 17
20260903224503 82 164 7.8 18.2 0.00 0.00 0.00 17
20260903223603 81 179 9.6 19.1 0.00 0.00 0.00 17
20260903222704 81 193 10.4 19.1 0.00 0.00 0.00 17
20260903222012 81 185 9.6 21.7 0.00 0.00 0.00 18
20260903221114 81 178 8.7 20.0 0.00 0.00 0.00 18
20260903220003 81 176 8.7 18.2 0.00 0.00 0.00 17
20260903215403 82 180 7.8 16.5 0.00 0.00 0.00 19
20260903214503 81 185 8.7 17.4 0.00 0.00 0.00 19
20260903213603 81 185 9.6 19.1 0.00 0.00 0.00 19
20260903212703 81 196 9.6 18.2 0.00 0.00 0.00 19
20260903211803 80 199 9.6 21.7 0.00 0.00 0.00 21
20260903210903 80 199 10.4 18.2 0.00 0.00 0.00 20
20260903210003 80 207 9.6 20.9 0.00 0.00 0.00 20
20260903205403 80 192 8.7 20.9 0.00 0.00 0.00 22
20260903204503 81 193 9.6 18.2 0.00 0.00 0.00 22
20260903203603 81 183 8.7 14.8 0.00 0.00 0.00 20
20260903202703 81 177 8.7 15.6 0.00 0.00 0.00 20
20260903201803 80 167 8.7 20.9 0.00 0.00 0.00 22
20260903200903 80 168 9.6 24.3 0.00 0.00 0.00 22
20260903200003 80 155 8.7 16.5 0.00 0.00 0.00 21
20260903195614 80 160 7.8 16.5 0.00 0.00 0.00 21
20260903194503 79 145 8.7 16.5 0.00 0.00 0.00 22
20260903193812 79 152 9.6 19.1 0.00 0.00 0.00 22
20260903192703 79 167 9.6 20.9 0.00 0.00 0.00 22
20260903191803 78 181 9.6 25.2 0.00 0.00 0.00 24
20260903190903 78 155 9.6 21.7 0.00 0.00 0.00 23
20260903190003 78 159 10.4 20.0 0.00 0.00 0.00 23
20260903185403 78 155 9.6 20.0 0.00 0.00 0.00 22
20260903184503 77 171 9.6 20.0 0.00 0.00 0.00 24
20260903183603 77 171 9.6 19.1 0.00 0.00 0.00 24
20260903182703 76 173 10.4 19.1 0.00 0.00 0.00 23
20260903181803 76 182 10.4 20.9 0.00 0.00 0.00 24
20260903180903 76 177 8.7 18.2 0.00 0.00 0.00 26
20260903180003 76 177 9.6 20.0 0.00 0.00 0.00 24
20260903175403 75 178 10.4 20.0 0.00 0.00 0.00 23
20260903174503 75 178 9.6 20.0 0.00 0.00 0.00 24
20260903173603 75 176 8.7 20.0 0.00 0.00 0.00 25
20260903172703 75 195 8.7 17.4 0.00 0.00 0.00 26
20260903171803 75 180 7.8 18.2 0.00 0.00 0.00 25
20260903171114 74 182 8.7 18.2 0.00 0.00 0.00 25
20260903170213 74 177 9.6 21.7 0.00 0.00 0.00 24
20260903165403 74 172 7.8 15.6 0.00 0.00 0.00 24
20260903164503 74 170 7.8 16.5 0.00 0.00 0.00 27
20260903163813 73 165 7.8 16.5 0.00 0.00 0.00 26
20260903162704 73 171 8.7 17.4 0.00 0.00 0.00 29
20260903161803 72 170 8.7 17.4 0.00 0.00 0.00 28
20260903160903 72 178 7.0 15.6 0.00 0.00 0.00 29
20260903160003 71 198 6.1 12.2 0.00 0.00 0.00 30
20260903155403 70 188 7.0 18.2 0.00 0.00 0.00 29
20260903154503 70 185 6.1 13.9 0.00 0.00 0.00 28
20260903153603 69 185 6.1 13.0 0.00 0.00 0.00 28
20260903152703 69 182 5.2 13.9 0.00 0.00 0.00 27
20260903151803 68 190 4.3 9.6 0.00 0.00 0.00 28
20260903150903 67 205 3.5 7.8 0.00 0.00 0.00 27
20260903150003 66 203 2.6 6.1 0.00 0.00 0.00 27
20260903145403 66 197 3.5 8.7 0.00 0.00 0.00 28
20260903144713 65 184 2.6 5.2 0.00 0.00 0.00 26
20260903143603 63 169 1.7 4.3 0.00 0.00 0.00 28
20260903142703 61 195 1.7 6.1 0.00 0.00 0.00 28
20260903141803 58 248 0.9 3.5 0.00 0.00 0.00 32
20260903141113 57 254 1.7 3.5 0.00 0.00 0.00 33
20260903140003 57 198 1.7 4.3 0.00 0.00 0.00 36
20260903135403 56 151 2.6 5.2 0.00 0.00 0.00 34
20260903134503 52 191 0.9 5.2 0.00 0.00 0.00 34
20260903133603 51 220 0.0 1.7 0.00 0.00 0.00 38
20260903132703 51 220 0.0 2.6 0.00 0.00 0.00 40
20260903132013 50 220 0.9 2.6 0.00 0.00 0.00 40
20260903130904 49 220 0.0 1.7 0.00 0.00 0.00 41
20260903130003 49 220 0.9 2.6 0.00 0.00 0.00 42
20260903125403 49 220 0.9 2.6 0.00 0.00 0.00 41
20260903124503 49 211 0.9 3.5 0.00 0.00 0.00 42
20260903123814 49 0 0.0 0.0 0.00 0.00 0.00 43
20260903122703 48 163 0.0 2.6 0.00 0.00 0.00 43
20260903121803 48 0 0.0 0.0 0.00 0.00 0.00 44
20260903120903 48 0 0.0 0.0 0.00 0.00 0.00 42
20260903120003 49 163 0.0 0.9 0.00 0.00 0.00 41
20260903115403 50 163 0.0 0.9 0.00 0.00 0.00 40
20260903114503 51 163 0.0 1.7 0.00 0.00 0.00 39
20260903113814 52 163 0.0 0.9 0.00 0.00 0.00 37
20260903112913 53 0 0.0 0.0 0.00 0.00 0.00 36
20260903111803 56 163 0.9 2.6 0.00 0.00 0.00 32
20260903110903 58 163 0.9 2.6 0.00 0.00 0.00 31
20260903110003 59 176 1.7 5.2 0.00 0.00 0.00 28
20260903105403 59 177 1.7 7.8 0.00 0.00 0.00 28
20260903104714 59 174 1.7 7.8 0.00 0.00 0.00 27
20260903103813 59 181 1.7 4.3 0.00 0.00 0.00 27
20260903102703 60 180 1.7 6.1 0.00 0.00 0.00 27
20260903101803 60 162 1.7 5.2 0.00 0.00 0.00 27
20260903100903 60 156 2.6 6.1 0.00 0.00 0.00 27
20260903100212 60 148 2.6 6.1 0.00 0.00 0.00 27
20260903095403 59 139 2.6 6.1 0.00 0.00 0.00 28
20260903094503 55 136 1.7 4.3 0.00 0.00 0.00 32
20260903093603 52 330 0.0 1.7 0.00 0.00 0.00 36
20260903092703 52 0 0.0 0.0 0.00 0.00 0.00 39
20260903091803 52 330 0.9 3.5 0.00 0.00 0.00 40
20260903090903 52 330 0.9 3.5 0.00 0.00 0.00 42
20260903090003 53 330 0.9 2.6 0.00 0.00 0.00 42
20260903085614 54 330 0.9 2.6 0.00 0.00 0.00 41
20260903084503 54 330 0.9 2.6 0.00 0.00 0.00 37
20260903083603 53 330 0.9 2.6 0.00 0.00 0.00 37
20260903082703 53 330 0.9 1.7 0.00 0.00 0.00 38
20260903081803 53 330 0.0 1.7 0.00 0.00 0.00 37
20260903081113 54 0 0.0 0.0 0.00 0.00 0.00 36
20260903080004 54 330 0.9 1.7 0.00 0.00 0.00 35
20260903075403 55 330 0.9 1.7 0.00 0.00 0.00 33
20260903074503 56 330 1.7 3.5 0.00 0.00 0.00 33
20260903073603 56 330 2.6 6.1 0.00 0.00 0.00 34
20260903072913 56 333 3.5 5.2 0.00 0.00 0.00 34
20260903071803 56 332 2.6 6.1 0.00 0.00 0.00 35
20260903070903 55 257 1.7 6.1 0.00 0.00 0.00 33
20260903070004 56 217 1.7 3.5 0.00 0.00 0.00 35
20260903065403 57 217 1.7 3.5 0.00 0.00 0.00 32
20260903064503 58 217 1.7 2.6 0.00 0.00 0.00 29
20260903063603 59 216 0.9 3.5 0.00 0.00 0.00 27
20260903062703 59 216 0.9 3.5 0.00 0.00 0.00 26
20260903061803 60 213 1.7 3.5 0.00 0.00 0.00 26
20260903060903 61 184 2.6 6.1 0.00 0.00 0.00 26
20260903060007 61 155 1.7 4.3 0.00 0.00 0.00 25
20260903055613 62 168 1.7 4.3 0.00 0.00 0.00 25
20260903054714 61 183 2.6 5.2 0.00 0.00 0.00 25
20260903053603 62 233 0.9 3.5 0.00 0.00 0.00 24
20260903052703 64 215 0.9 4.3 0.00 0.00 0.00 23
20260903052014 65 179 1.7 4.3 0.00 0.00 0.00 24
20260903050903 65 152 2.6 6.1 0.00 0.00 0.00 21
20260903050003 64 142 2.6 5.2 0.00 0.00 0.00 22